TimePDT,TemperatureF,Dew PointF,Humidity,Sea Level PressureIn,VisibilityMPH,Wind Direction,Wind SpeedMPH,Gust SpeedMPH,PrecipitationIn,Events,Conditions,WindDirDegrees,DateUTC
12:14 AM,51.8,44.6,76,30.17,10.0,SSW,8.1,-,N/A,,Overcast,210,2013-04-02 07:14:00
12:53 AM,50.0,45.0,83,30.20,10.0,SSW,6.9,-,N/A,,Overcast,200,2013-04-02 07:53:00
1:53 AM,50.0,45.0,83,30.21,10.0,SW,5.8,-,N/A,,Overcast,220,2013-04-02 08:53:00
2:22 AM,50.0,44.6,82,30.19,10.0,SW,5.8,-,N/A,,Overcast,220,2013-04-02 09:22:00
2:53 AM,50.0,44.1,80,30.21,10.0,SSW,5.8,-,N/A,,Overcast,210,2013-04-02 09:53:00
3:53 AM,50.0,44.1,80,30.22,10.0,SW,3.5,-,N/A,,Overcast,220,2013-04-02 10:53:00
4:42 AM,50.0,44.6,82,30.20,10.0,WSW,4.6,-,N/A,,Overcast,250,2013-04-02 11:42:00
4:53 AM,48.9,45.0,86,30.22,10.0,WSW,5.8,-,N/A,,Overcast,250,2013-04-02 11:53:00
5:43 AM,48.2,44.6,87,30.20,10.0,SW,3.5,-,N/A,,Overcast,220,2013-04-02 12:43:00
5:53 AM,48.9,44.1,83,30.22,10.0,SSW,3.5,-,N/A,,Overcast,210,2013-04-02 12:53:00
6:53 AM,48.9,44.1,83,30.23,10.0,SSW,5.8,-,N/A,,Overcast,200,2013-04-02 13:53:00
7:29 AM,48.2,44.6,87,30.20,10.0,SSE,5.8,-,N/A,,Mostly Cloudy,160,2013-04-02 14:29:00
7:53 AM,48.9,44.1,83,30.22,10.0,SSE,5.8,-,N/A,,Mostly Cloudy,160,2013-04-02 14:53:00
8:53 AM,50.0,43.0,77,30.23,10.0,SSW,4.6,-,N/A,,Mostly Cloudy,210,2013-04-02 15:53:00
9:53 AM,51.1,44.1,77,30.23,10.0,SSW,9.2,-,N/A,,Overcast,200,2013-04-02 16:53:00
10:45 AM,51.8,44.6,76,30.21,10.0,SSW,6.9,-,N/A,,Overcast,200,2013-04-02 17:45:00
10:53 AM,51.1,44.1,77,30.24,10.0,South,5.8,-,N/A,,Overcast,190,2013-04-02 17:53:00
11:46 AM,51.8,44.6,76,30.21,10.0,South,4.6,-,N/A,,Overcast,190,2013-04-02 18:46:00
11:53 AM,53.1,45.0,74,30.23,10.0,South,5.8,-,N/A,,Overcast,180,2013-04-02 18:53:00
12:53 PM,53.1,44.1,71,30.23,10.0,SSW,8.1,-,N/A,,Overcast,200,2013-04-02 19:53:00
1:53 PM,54.0,45.0,72,30.23,10.0,South,6.9,-,N/A,,Overcast,190,2013-04-02 20:53:00
2:53 PM,54.0,44.1,69,30.23,10.0,SSW,9.2,-,N/A,,Overcast,200,2013-04-02 21:53:00
3:31 PM,55.4,44.6,67,30.21,10.0,South,8.1,-,N/A,,Overcast,180,2013-04-02 22:31:00
3:53 PM,54.0,45.0,72,30.22,10.0,South,6.9,-,N/A,,Mostly Cloudy,190,2013-04-02 22:53:00
4:53 PM,55.9,46.0,69,30.21,10.0,South,6.9,-,N/A,,Mostly Cloudy,180,2013-04-02 23:53:00
5:53 PM,55.0,45.0,69,30.20,10.0,SSW,4.6,-,N/A,,Overcast,200,2013-04-03 00:53:00
6:53 PM,55.0,46.0,72,30.19,10.0,Calm,Calm,-,N/A,,Overcast,0,2013-04-03 01:53:00
7:53 PM,54.0,46.0,75,30.19,10.0,SSE,5.8,-,N/A,,Overcast,160,2013-04-03 02:53:00
8:53 PM,53.6,46.4,77,30.19,10.0,Calm,Calm,-,N/A,,Overcast,0,2013-04-03 03:53:00
9:53 PM,53.1,45.0,74,30.22,10.0,WSW,4.6,-,N/A,,Overcast,240,2013-04-03 04:53:00
10:13 PM,53.6,44.6,72,30.19,10.0,West,3.5,-,N/A,,Overcast,260,2013-04-03 05:13:00
10:53 PM,52.0,45.0,77,30.22,10.0,Calm,Calm,-,N/A,,Mostly Cloudy,0,2013-04-03 05:53:00
11:53 PM,52.0,44.1,74,30.21,10.0,Calm,Calm,-,N/A,,Mostly Cloudy,0,2013-04-03 06:53:00